TimeMST,TemperatureF,Dew PointF,Humidity,Sea Level PressureIn,VisibilityMPH,Wind Direction,Wind SpeedMPH,Gust SpeedMPH,PrecipitationIn,Events,Conditions,WindDirDegrees,DateUTC
12:57 AM,19.9,16.0,85,30.00,10.0,SSW,3.5,-,N/A,,Clear,210,2012-02-20 07:57:00
1:57 AM,19.9,16.0,85,30.02,10.0,SSW,4.6,-,N/A,,Clear,210,2012-02-20 08:57:00
2:57 AM,19.0,15.1,85,30.04,10.0,SW,3.5,-,N/A,,Clear,230,2012-02-20 09:57:00
3:57 AM,17.1,14.0,88,30.03,10.0,SSW,4.6,-,N/A,,Clear,200,2012-02-20 10:57:00
4:57 AM,18.0,12.9,81,30.05,10.0,SW,5.8,-,N/A,,Clear,230,2012-02-20 11:57:00
5:57 AM,19.0,10.0,68,30.06,10.0,South,6.9,-,N/A,,Clear,190,2012-02-20 12:57:00
6:57 AM,12.9,10.0,88,30.09,10.0,NW,4.6,-,N/A,,Clear,310,2012-02-20 13:57:00
7:57 AM,16.0,12.0,84,30.09,10.0,Calm,Calm,-,N/A,,Clear,0,2012-02-20 14:57:00
8:57 AM,26.1,12.0,55,30.10,10.0,ENE,3.5,-,N/A,,Clear,60,2012-02-20 15:57:00
9:57 AM,30.0,12.0,47,30.11,10.0,Variable,3.5,-,N/A,,Clear,0,2012-02-20 16:57:00
10:57 AM,34.0,12.9,42,30.09,10.0,North,3.5,-,N/A,,Clear,10,2012-02-20 17:57:00
11:57 AM,37.0,12.0,36,30.08,10.0,SSE,3.5,-,N/A,,Clear,160,2012-02-20 18:57:00
12:57 PM,41.0,12.0,31,30.05,10.0,Variable,3.5,-,N/A,,Clear,0,2012-02-20 19:57:00
1:57 PM,44.1,8.1,23,30.03,10.0,SW,11.5,16.1,N/A,,Clear,230,2012-02-20 20:57:00
2:57 PM,43.0,16.0,34,30.04,10.0,SSW,8.1,17.3,N/A,,Clear,210,2012-02-20 21:57:00
3:57 PM,43.0,12.0,28,30.05,10.0,SSW,12.7,-,N/A,,Clear,210,2012-02-20 22:57:00
4:57 PM,42.1,8.1,25,30.07,10.0,WSW,9.2,-,N/A,,Clear,250,2012-02-20 23:57:00
5:57 PM,37.9,10.0,32,30.09,10.0,SW,6.9,-,N/A,,Clear,230,2012-02-21 00:57:00
6:57 PM,30.9,12.0,46,30.17,10.0,Calm,Calm,-,N/A,,Clear,0,2012-02-21 01:57:00
7:57 PM,26.1,14.0,60,30.19,10.0,Calm,Calm,-,N/A,,Clear,0,2012-02-21 02:57:00
8:57 PM,25.0,15.1,66,30.17,10.0,Calm,Calm,-,N/A,,Clear,0,2012-02-21 03:57:00
9:57 PM,24.1,14.0,65,30.17,10.0,Calm,Calm,-,N/A,,Clear,0,2012-02-21 04:57:00
10:57 PM,21.9,14.0,72,30.16,10.0,Calm,Calm,-,N/A,,Clear,0,2012-02-21 05:57:00
11:57 PM,19.9,14.0,78,30.17,10.0,Calm,Calm,-,N/A,,Clear,0,2012-02-21 06:57:00